When you browse on this site, cookies collect data to enhance your experience and personalize the content and advertising you see.
Visit our Privacy Policy to learn more. By continuing to use the site, you agree to this use of cookies and data.
  • In Hungary
  • List of Countries
  • For 7 days
  • Water Temperature
  • Weather Map
  • News
  • Weather Widgets
  • user-avatar
    Login

    Hourly Weather Ludza

    Today, 3 April, Friday

    Time Temperature Precipitation Wind Pressure Humidity
    00:00 +2°C° 0 mm 7 mps 734 mmHg 74%
    01:00 0°C° 0 mm 7 mps 733 mmHg 75%
    02:00 0°C° 0 mm 7 mps 732 mmHg 75%
    03:00 0°C° 0 mm 7 mps 732 mmHg 76%
    04:00 0°C° 0 mm 7 mps 731 mmHg 77%
    05:00 0°C° 0 mm 8 mps 730 mmHg 77%
    06:00 0°C° 0.2 mm 8 mps 730 mmHg 82%
    07:00 0°C° 0.2 mm 8 mps 730 mmHg 87%
    08:00 -1°C° 0.2 mm 8 mps 731 mmHg 91%
    09:00 0°C° 0.2 mm 8 mps 731 mmHg 82%
    10:00 +1°C° 0.2 mm 9 mps 731 mmHg 73%
    11:00 +2°C° 0.2 mm 9 mps 731 mmHg 64%
    12:00 +3°C° 0.1 mm 9 mps 731 mmHg 60%
    13:00 +3°C° 0.1 mm 9 mps 732 mmHg 55%
    14:00 +5°C° 0.1 mm 9 mps 732 mmHg 50%
    15:00 +5°C° 0 mm 8 mps 733 mmHg 49%
    16:00 +5°C° 0 mm 8 mps 733 mmHg 47%
    17:00 +5°C° 0 mm 7 mps 734 mmHg 45%
    18:00 +3°C° 0 mm 6 mps 735 mmHg 49%
    19:00 +2°C° 0 mm 5 mps 736 mmHg 54%
    20:00 +1°C° 0 mm 3 mps 737 mmHg 59%
    21:00 +1°C° 0 mm 3 mps 737 mmHg 60%
    22:00 -1°C° 0 mm 4 mps 738 mmHg 62%
    23:00 -1°C° 0 mm 4 mps 738 mmHg 63%

    Tomorrow, 4 April, Saturday

    Time Temperature Precipitation Wind Pressure Humidity
    00:00 -2°C° 0 mm 4 mps 739 mmHg 66%
    01:00 -1°C° 0 mm 3 mps 740 mmHg 68%
    02:00 -1°C° 0 mm 3 mps 740 mmHg 70%
    03:00 -1°C° 0 mm 3 mps 741 mmHg 72%
    04:00 -2°C° 0 mm 3 mps 742 mmHg 73%
    05:00 -2°C° 0 mm 3 mps 743 mmHg 74%
    06:00 -1°C° 0 mm 3 mps 743 mmHg 67%
    07:00 -1°C° 0 mm 4 mps 744 mmHg 60%
    08:00 0°C° 0 mm 4 mps 745 mmHg 54%
    09:00 +1°C° 0 mm 4 mps 746 mmHg 48%
    10:00 +2°C° 0 mm 5 mps 746 mmHg 42%
    11:00 +5°C° 0 mm 5 mps 747 mmHg 36%
    12:00 +5°C° 0 mm 5 mps 747 mmHg 38%
    13:00 +5°C° 0 mm 5 mps 747 mmHg 40%
    14:00 +5°C° 0 mm 5 mps 748 mmHg 42%
    15:00 +5°C° 0.2 mm 5 mps 748 mmHg 47%
    16:00 +3°C° 0.2 mm 5 mps 748 mmHg 51%
    17:00 +2°C° 0.2 mm 5 mps 748 mmHg 56%
    18:00 +1°C° 0.1 mm 5 mps 749 mmHg 60%
    19:00 0°C° 0.1 mm 4 mps 750 mmHg 64%
    20:00 0°C° 0.1 mm 3 mps 751 mmHg 68%
    21:00 0°C° 0 mm 3 mps 752 mmHg 69%
    22:00 -1°C° 0 mm 3 mps 753 mmHg 70%
    23:00 -2°C° 0 mm 3 mps 754 mmHg 71%

    Day after tomorrow, 5 April, Sunday

    Time Temperature Precipitation Wind Pressure Humidity
    00:00 -2°C° 0 mm 3 mps 755 mmHg 70%
    01:00 -3°C° 0 mm 4 mps 755 mmHg 68%
    02:00 -3°C° 0 mm 4 mps 756 mmHg 67%
    03:00 -4°C° 0 mm 3 mps 757 mmHg 68%
    04:00 -4°C° 0 mm 3 mps 758 mmHg 68%
    05:00 -4°C° 0 mm 3 mps 758 mmHg 69%
    06:00 -2°C° 0 mm 3 mps 759 mmHg 62%
    07:00 -1°C° 0 mm 3 mps 759 mmHg 55%
    08:00 -1°C° 0 mm 4 mps 760 mmHg 48%
    09:00 +1°C° 0 mm 4 mps 760 mmHg 43%
    10:00 +3°C° 0 mm 4 mps 761 mmHg 37%
    11:00 +3°C° 0 mm 5 mps 761 mmHg 31%
    12:00 +5°C° 0 mm 4 mps 761 mmHg 32%
    13:00 +5°C° 0 mm 4 mps 761 mmHg 32%
    14:00 +6°C° 0 mm 4 mps 761 mmHg 32%
    15:00 +6°C° 0 mm 4 mps 761 mmHg 34%
    16:00 +6°C° 0 mm 4 mps 761 mmHg 37%
    17:00 +7°C° 0 mm 3 mps 761 mmHg 39%
    18:00 +4°C° 0 mm 3 mps 762 mmHg 45%
    19:00 +3°C° 0 mm 2 mps 762 mmHg 50%
    20:00 +3°C° 0 mm 1 mps 762 mmHg 56%
    21:00 +2°C° 0 mm 1 mps 762 mmHg 57%
    22:00 +2°C° 0 mm 1 mps 762 mmHg 58%
    23:00 +2°C° 0 mm 1 mps 763 mmHg 59%

    6 April, Monday

    Time Temperature Precipitation Wind Pressure Humidity
    00:00 -1°C° 0 mm 2 mps 763 mmHg 60%
    01:00 -1°C° 0 mm 2 mps 763 mmHg 62%
    02:00 -1°C° 0 mm 2 mps 763 mmHg 64%
    03:00 -1°C° 0 mm 2 mps 763 mmHg 68%
    04:00 -1°C° 0 mm 2 mps 763 mmHg 72%
    05:00 -1°C° 0 mm 2 mps 763 mmHg 77%
    06:00 +1°C° 0 mm 2 mps 763 mmHg 73%
    07:00 +2°C° 0 mm 3 mps 763 mmHg 70%
    08:00 +3°C° 0 mm 3 mps 763 mmHg 66%
    09:00 +4°C° 0 mm 3 mps 763 mmHg 60%
    10:00 +7°C° 0 mm 3 mps 763 mmHg 53%
    11:00 +8°C° 0 mm 3 mps 763 mmHg 47%
    12:00 +8°C° 0 mm 4 mps 763 mmHg 45%
    13:00 +10°C° 0 mm 4 mps 763 mmHg 43%
    14:00 +10°C° 0 mm 4 mps 763 mmHg 41%
    15:00 +10°C° 0 mm 4 mps 762 mmHg 41%
    16:00 +10°C° 0 mm 3 mps 762 mmHg 42%
    17:00 +10°C° 0 mm 3 mps 761 mmHg 43%
    18:00 +8°C° 0 mm 3 mps 761 mmHg 49%
    19:00 +7°C° 0 mm 3 mps 761 mmHg 55%
    20:00 +4°C° 0 mm 3 mps 760 mmHg 62%
    21:00 +4°C° 0 mm 3 mps 760 mmHg 64%
    22:00 +3°C° 0 mm 3 mps 760 mmHg 67%
    23:00 +3°C° 0 mm 3 mps 760 mmHg 70%

    7 April, Tuesday

    Time Temperature Precipitation Wind Pressure Humidity
    00:00 +3°C° 0 mm 3 mps 760 mmHg 71%
    01:00 +2°C° 0 mm 3 mps 760 mmHg 73%
    02:00 +2°C° 0 mm 3 mps 760 mmHg 74%
    03:00 +2°C° 0 mm 3 mps 759 mmHg 75%
    04:00 +2°C° 0 mm 3 mps 759 mmHg 76%
    05:00 +1°C° 0 mm 3 mps 759 mmHg 77%
    06:00 +3°C° 0 mm 3 mps 759 mmHg 74%
    07:00 +4°C° 0 mm 3 mps 759 mmHg 70%
    08:00 +5°C° 0 mm 3 mps 758 mmHg 67%
    09:00 +7°C° 0 mm 4 mps 758 mmHg 62%
    10:00 +10°C° 0 mm 4 mps 758 mmHg 57%
    11:00 +12°C° 0 mm 4 mps 757 mmHg 51%
    12:00 +13°C° 0 mm 5 mps 757 mmHg 48%
    13:00 +14°C° 0 mm 5 mps 757 mmHg 44%
    14:00 +15°C° 0 mm 5 mps 757 mmHg 41%
    15:00 +15°C° 0 mm 5 mps 757 mmHg 43%
    16:00 +14°C° 0 mm 5 mps 756 mmHg 45%
    17:00 +14°C° 0 mm 4 mps 756 mmHg 47%
    18:00 +12°C° 0 mm 4 mps 756 mmHg 54%
    19:00 +11°C° 0 mm 3 mps 756 mmHg 60%
    20:00 +9°C° 0 mm 3 mps 756 mmHg 67%
    21:00 +9°C° 0 mm 3 mps 757 mmHg 70%
    22:00 +9°C° 0 mm 3 mps 757 mmHg 74%
    23:00 +8°C° 0 mm 3 mps 757 mmHg 78%

    8 April, Wednesday

    Time Temperature Precipitation Wind Pressure Humidity
    00:00 +7°C° 0 mm 3 mps 758 mmHg 83%
    01:00 +7°C° 0 mm 3 mps 758 mmHg 88%
    02:00 +5°C° 0 mm 3 mps 758 mmHg 93%
    03:00 +5°C° 0 mm 2 mps 759 mmHg 93%
    04:00 +5°C° 0 mm 2 mps 759 mmHg 94%
    05:00 +4°C° 0 mm 2 mps 759 mmHg 95%
    06:00 +5°C° 0 mm 2 mps 760 mmHg 86%
    07:00 +6°C° 0 mm 2 mps 760 mmHg 77%
    08:00 +7°C° 0 mm 2 mps 760 mmHg 68%
    09:00 +8°C° 0 mm 2 mps 761 mmHg 56%
    10:00 +10°C° 0 mm 2 mps 761 mmHg 45%
    11:00 +11°C° 0 mm 3 mps 761 mmHg 33%
    12:00 +12°C° 0 mm 3 mps 760 mmHg 32%
    13:00 +13°C° 0 mm 3 mps 760 mmHg 30%
    14:00 +13°C° 0 mm 3 mps 760 mmHg 28%
    15:00 +13°C° 0 mm 3 mps 760 mmHg 29%
    16:00 +13°C° 0 mm 3 mps 760 mmHg 30%
    17:00 +13°C° 0 mm 3 mps 759 mmHg 31%
    18:00 +12°C° 0 mm 2 mps 759 mmHg 37%
    19:00 +9°C° 0 mm 2 mps 759 mmHg 43%
    20:00 +8°C° 0 mm 2 mps 759 mmHg 48%
    21:00 +7°C° 0 mm 2 mps 759 mmHg 52%
    22:00 +6°C° 0 mm 2 mps 759 mmHg 56%
    23:00 +6°C° 0 mm 2 mps 759 mmHg 60%
    Show more